Location: Lalanga
(4.5882°N, 32.9072°E)
Time: 17:49:07
(UTC+00:00)

In-Cosmos 22 Rocket - Pass Details

Date: 24 January 2020
Orbit: 790 x 889 km, 81.2° (Epoch: 26 February)

Event Time Altitude Azimuth Distance (km) Brightness Sun altitude
Rises 17:10:05 0° 186° (S) 3,491 7.7 -17.9°
Reaches altitude 10° 17:12:33 10° 187° (S) 2,548 7.0 -18.5°
Maximum altitude 17:18:22 85° 274° (W) 887 4.3 -19.9°
Drops below altitude 10° 17:24:06 10° 3° (N) 2,507 6.4 -21.3°
Enters shadow 17:24:53 - 4° (N) 2,807 6.7 -21.4°
